Weather History for Guymon, OK

Change the Weather History Date:

Saturday, March 29, 2014

  Actual Average Record
Temperature  
Mean Temperature 52 °F 50 °F  
Max Temperature 72 °F 65 °F 86 °F (2012)
Min Temperature 31 °F 35 °F 25 °F (2009)
Degree Days  
Heating Degree Days 13 15  
Month to date heating degree days 599 552  
Since 1 July heating degree days 4165 4019  
Cooling Degree Days 0 0  
Month to date cooling degree days 0 0  
Year to date cooling degree days 0 0  
Growing Degree Days 2 (Base 50)    
Moisture  
Dew Point 22 °F    
Average Humidity 39    
Maximum Humidity 64    
Minimum Humidity 14    
Precipitation  
Precipitation 0.00 in 0.05 in 0.01 in (2011)
Month to date precipitation 0.21 1.33  
Year to date precipitation 0.55 2.20  
Snow  
Snow 0.00 in - - ()
Month to date snowfall 1.5  
Since 1 July snowfall 14.2  
Snow Depth 0.00 in    
Sea Level Pressure  
Sea Level Pressure 30.13 in    
Wind  
Wind Speed 14 mph (SW)    
Max Wind Speed 32 mph    
Max Gust Speed 41 mph    
Visibility 10 miles    
Events      
T = Trace of Precipitation, MM = Missing Value Source: NWS Daily Summary

Daily Weather History Graph

Daily Weather History Graph

Search for Another Location

Airport:

Trip Planner

Search our weather history database for the weather conditions in past years. The results will help you decide how hot, cold, wet, or windy it might be!

Date:

Astronomy

Mar. 29, 2014 Rise Set
Actual Time 7:36 AM CDT 8:05 PM CDT
Civil Twilight 7:10 AM CDT 8:31 PM CDT
Nautical Twilight 6:39 AM CDT 9:02 PM CDT
Astronomical Twilight 6:08 AM CDT 9:33 PM CDT
Moon 6:44 AM CDT (3/29) 7:13 PM CDT (3/29)
Length of Visible Light 13h 21m
Length of Day
12h 29m
Waning Crescent, 2% of the Moon is Illuminated
Mar 29
Waning Crescent
Mar 30
New
Apr 7
First Quarter
Apr 15
Full
Apr 22
Last Quarter

Hourly Weather History & Observations

Time (CDT) Temp. Windchill Dew Point Humidity Pressure Visibility Wind Dir Wind Speed Gust Speed Precip Events Conditions
12:53 AM 42.1 °F 37.7 °F 25.0 °F 51% 30.17 in 10.0 mi NW 6.9 mph - N/A   Clear
1:53 AM 39.9 °F 34.5 °F 24.1 °F 53% 30.19 in 10.0 mi WNW 8.1 mph - N/A   Clear
2:53 AM 37.0 °F - 24.1 °F 59% 30.20 in 10.0 mi Calm Calm - N/A   Clear
3:53 AM 35.1 °F 29.3 °F 21.0 °F 57% 30.22 in 10.0 mi NNW 6.9 mph - N/A   Clear
4:53 AM 34.0 °F 27.2 °F 21.9 °F 61% 30.23 in 10.0 mi WNW 8.1 mph - N/A   Clear
5:53 AM 34.0 °F 28.0 °F 23.0 °F 64% 30.24 in 10.0 mi West 6.9 mph - N/A   Clear
6:53 AM 32.0 °F 25.6 °F 21.9 °F 66% 30.26 in 10.0 mi WNW 6.9 mph - N/A   Clear
7:53 AM 32.0 °F 26.4 °F 21.0 °F 64% 30.28 in 10.0 mi West 5.8 mph - N/A   Clear
8:53 AM 37.9 °F - 23.0 °F 55% 30.28 in 10.0 mi Calm Calm - N/A   Clear
9:53 AM 45.0 °F 43.5 °F 24.1 °F 44% 30.27 in 10.0 mi Variable 3.5 mph - N/A   Clear
10:53 AM 51.1 °F - 27.0 °F 39% 30.27 in 10.0 mi SSE 6.9 mph - N/A   Clear
11:53 AM 60.1 °F - 26.1 °F 27% 30.23 in 10.0 mi South 11.5 mph - N/A   Clear
12:53 PM 63.0 °F - 23.0 °F 22% 30.19 in 10.0 mi South 15.0 mph 25.3 mph N/A   Clear
1:53 PM 66.9 °F - 21.0 °F 17% 30.15 in 10.0 mi SSW 21.9 mph 29.9 mph N/A   Clear
2:53 PM 69.1 °F - 19.9 °F 15% 30.11 in 10.0 mi SSW 28.8 mph 38.0 mph N/A   Clear
3:53 PM 70.0 °F - 19.9 °F 15% 30.06 in 10.0 mi South 21.9 mph 35.7 mph N/A   Clear
4:53 PM 71.1 °F - 19.0 °F 14% 30.01 in 10.0 mi SSW 31.1 mph 36.8 mph N/A   Clear
5:53 PM 71.1 °F - 19.9 °F 14% 29.98 in 10.0 mi SSW 28.8 mph 38.0 mph N/A   Clear
6:53 PM 69.1 °F - 19.9 °F 15% 29.97 in 10.0 mi South 26.5 mph 33.4 mph N/A   Clear
7:53 PM 66.0 °F - 21.0 °F 18% 29.98 in 10.0 mi South 16.1 mph - N/A   Clear
8:53 PM 60.1 °F - 23.0 °F 24% 29.99 in 10.0 mi South 12.7 mph - N/A   Clear
9:53 PM 59.0 °F - 23.0 °F 25% 29.99 in 10.0 mi South 16.1 mph - N/A   Clear
10:53 PM 55.9 °F - 21.9 °F 27% 29.98 in 10.0 mi South 15.0 mph - N/A   Clear
11:53 PM 55.0 °F - 19.9 °F 25% 29.95 in 10.0 mi South 17.3 mph - N/A   Clear